Weather History for Whiteman AFB, MO

Change the Weather History Date:

Thursday, November 22, 2012

  Actual Average Record
Temperature  
Mean Temperature 58 °F -  
Max Temperature 70 °F 51 °F 111 °F (2004)
Min Temperature 46 °F 34 °F 19 °F (2000)
Degree Days  
Heating Degree Days 6    
Growing Degree Days 8 (Base 50)    
Moisture  
Dew Point 45 °F    
Average Humidity 62    
Maximum Humidity 77    
Minimum Humidity 49    
Precipitation  
Precipitation 0.00 in - - ()
Sea Level Pressure  
Sea Level Pressure 29.98 in    
Wind  
Wind Speed 14 mph (SW)    
Max Wind Speed 28 mph    
Max Gust Speed 39 mph    
Visibility 10 miles    
Events      
Averages and records for this station are not official NWS values.
T = Trace of Precipitation, MM = Missing Value Source: NWS Daily Summary

Daily Weather History Graph

Daily Weather History Graph

Search for Another Location

Airport:

Trip Planner

Search our weather history database for the weather conditions in past years. The results will help you decide how hot, cold, wet, or windy it might be!

Date:

Astronomy

Nov. 22, 2012 Rise Set
Actual Time 7:04 AM CST 4:56 PM CST
Civil Twilight 6:35 AM CST 5:24 PM CST
Nautical Twilight 6:03 AM CST 5:57 PM CST
Astronomical Twilight 5:31 AM CST 6:29 PM CST
Moon 1:39 PM CST (11/22) 1:28 AM CST (11/22)
Length of Visible Light 10h 49m
Length of Day
9h 51m
Waxing Gibbous, 71% of the Moon is Illuminated
Nov 22
Waxing Gibbous
Nov 28
Full
Dec 6
Last Quarter
Dec 13
New
Dec 19
First Quarter

Hourly Weather History & Observations

Time (CST) Temp. Windchill Dew Point Humidity Pressure Visibility Wind Dir Wind Speed Gust Speed Precip Events Conditions
12:55 AM 47.3 °F - 38.3 °F 71% 30.02 in 10.0 mi South 9.2 mph - N/A   Clear
1:55 AM 48.6 °F - 39.6 °F 71% 30.01 in 10.0 mi South 9.2 mph - N/A   Clear
2:55 AM 50.7 °F - 40.1 °F 67% 29.99 in 10.0 mi South 11.5 mph - N/A   Partly Cloudy
3:55 AM 51.4 °F - 40.3 °F 66% 29.97 in 10.0 mi South 11.5 mph - N/A   Partly Cloudy
4:55 AM 54.5 °F - 40.5 °F 59% 29.96 in 10.0 mi SSW 12.7 mph - N/A   Mostly Cloudy
5:55 AM 56.5 °F - 40.6 °F 55% 29.94 in 10.0 mi SSW 20.7 mph - N/A   Mostly Cloudy
6:55 AM 56.3 °F - 41.5 °F 58% 29.93 in 10.0 mi SSW 18.4 mph - N/A   Mostly Cloudy
7:55 AM 56.8 °F - 42.4 °F 59% 29.94 in 10.0 mi SSW 17.3 mph - N/A   Scattered Clouds
8:55 AM 58.1 °F - 43.5 °F 58% 29.93 in 10.0 mi SSW 21.9 mph - N/A   Partly Cloudy
9:55 AM 61.0 °F - 45.7 °F 57% 29.94 in 10.0 mi SSW 19.6 mph 27.6 mph N/A   Clear
10:55 AM 66.4 °F - 48.0 °F 52% 29.92 in 10.0 mi SSW 27.6 mph 33.4 mph N/A   Mostly Cloudy
11:55 AM 67.5 °F - 48.2 °F 50% 29.90 in 10.0 mi SSW 25.3 mph 33.4 mph N/A   Mostly Cloudy
12:55 PM 67.1 °F - 49.3 °F 53% 29.88 in 10.0 mi SW 21.9 mph 32.2 mph N/A   Partly Cloudy
1:55 PM 70.0 °F - 50.2 °F 49% 29.87 in 10.0 mi SW 20.7 mph 39.1 mph N/A   Scattered Clouds
2:55 PM 66.0 °F - 49.6 °F 55% 29.89 in 10.0 mi SW 16.1 mph 25.3 mph N/A   Partly Cloudy
3:27 PM 66.2 °F - 50.0 °F 56% 29.90 in 10.0 mi SW 16.1 mph - N/A   Light Drizzle
3:55 PM 62.2 °F - 53.8 °F 74% 29.90 in 10.0 mi SW 13.8 mph - 0.00 in   Light Drizzle
4:04 PM 62.6 °F - 55.4 °F 77% 29.91 in 10.0 mi WSW 9.2 mph - N/A   Mostly Cloudy
4:55 PM 61.7 °F - 53.8 °F 75% 29.94 in 10.0 mi SW 8.1 mph - 0.00 in   Mostly Cloudy
5:55 PM 61.9 °F - 53.6 °F 74% 29.96 in 10.0 mi SW 8.1 mph - N/A   Overcast
6:55 PM 63.1 °F - 53.2 °F 70% 30.02 in 10.0 mi WNW 16.1 mph 23.0 mph N/A   Overcast
7:55 PM 58.8 °F - 41.9 °F 53% 30.08 in 10.0 mi NNW 18.4 mph 25.3 mph N/A   Mostly Cloudy
8:55 PM 53.1 °F - 39.6 °F 60% 30.13 in 10.0 mi NNW 13.8 mph - N/A   Clear
9:55 PM 50.7 °F - 38.1 °F 62% 30.16 in 10.0 mi North 16.1 mph 26.5 mph N/A   Clear
10:55 PM 49.1 °F - 35.2 °F 59% 30.19 in 10.0 mi NNW 15.0 mph 24.2 mph N/A   Clear
11:55 PM 46.0 °F 41.0 °F 34.9 °F 65% 30.23 in 10.0 mi NNW 10.4 mph - N/A   Clear